Cross City, FL

12:49 AM EST on November 22, 2019 (GMT -0500)
Cross City

Weather History for KCTY - September, 2019

Change the Weather History Date:

Saturday, September 21, 2019

  Actual Average Record
Temperature  
Mean Temperature 78 °F 78 °F  
Max Temperature 88 °F 88 °F 95 °F (2010)
Min Temperature 67 °F 67 °F 55 °F (2006)
Degree Days  
Heating Degree Days 0    
Month to date heating degree days 0  
Since 1 July heating degree days 0  
Cooling Degree Days 13    
Month to date cooling degree days 365  
Year to date cooling degree days 2623  
Growing Degree Days 27 (Base 50)    
Moisture  
Dew Point 66 °F    
Average Humidity 71    
Maximum Humidity 98    
Minimum Humidity 41    
Precipitation  
Precipitation 0.00 in 0.11 in 1.40 in (1998)
Month to date precipitation 0.67 3.45  
Year to date precipitation 47.07 38.82  
Sea Level Pressure  
Sea Level Pressure 30.17 in    
Wind  
Wind Speed 6 mph (NE)    
Max Wind Speed 12 mph    
Max Gust Speed 22 mph    
Visibility 10 miles    
Events      
T = Trace of Precipitation, MM = Missing Value Source: NWS Daily Summary

Daily Weather History Graph

Daily Weather History Graph

Search for Another Location

Airport or City:

Astronomy

Sep. 21, 2019 Rise Set
Actual Time 7:20 AM EDT 7:30 PM EDT
Civil Twilight 6:56 AM EDT 7:54 PM EDT
Nautical Twilight 6:28 AM EDT 8:21 PM EDT
Astronomical Twilight 6:00 AM EDT 8:49 PM EDT
Moon No Moon Rise 1:57 PM EDT (9/21)
Length of Visible Light 12h 57m
Length of Day
12h 10m
Waning Gibbous, 55% of the Moon is Illuminated
Sep 21
Waning Gibbous
Sep 21
Last Quarter
Sep 28
New
Oct 5
First Quarter
Oct 13
Full

Hourly Weather History & Observations

Time (EDT) Temp. Heat Index Dew Point Humidity Pressure Visibility Wind Dir Wind Speed Gust Speed Precip Events Conditions
12:15 AM 72.3 °F - 66.2 °F 81% 30.18 in 10.0 mi NE 4.6 mph - N/A   Unknown
12:35 AM 72.0 °F - 66.2 °F 82% 30.18 in 10.0 mi ENE 5.8 mph - N/A   Unknown
12:55 AM 71.6 °F - 66.4 °F 84% 30.18 in 10.0 mi NE 4.6 mph - N/A   Unknown
1:15 AM 70.3 °F - 66.4 °F 87% 30.17 in 10.0 mi NNE 3.5 mph - N/A   Unknown
1:35 AM 69.4 °F - 66.2 °F 89% 30.17 in 10.0 mi NNE 4.6 mph - N/A   Unknown
1:55 AM 69.8 °F - 66.2 °F 88% 30.17 in 10.0 mi NNE 4.6 mph - N/A   Unknown
2:15 AM 68.7 °F - 66.2 °F 92% 30.17 in 10.0 mi NE 4.6 mph - N/A   Unknown
2:35 AM 69.3 °F - 66.6 °F 91% 30.17 in 10.0 mi NE 6.9 mph - N/A   Unknown
2:55 AM 69.6 °F - 66.7 °F 91% 30.17 in 10.0 mi NE 5.8 mph - N/A   Unknown
3:15 AM 69.4 °F - 67.1 °F 92% 30.17 in 10.0 mi NE 5.8 mph - N/A   Unknown
3:35 AM 69.4 °F - 67.5 °F 93% 30.16 in 10.0 mi NE 5.8 mph - N/A   Unknown
3:55 AM 69.6 °F - 67.8 °F 94% 30.17 in 10.0 mi NE 5.8 mph - N/A   Unknown
4:15 AM 70.0 °F - 68.2 °F 94% 30.17 in 10.0 mi NNE 5.8 mph - N/A   Unknown
4:35 AM 69.3 °F - 67.8 °F 95% 30.16 in 10.0 mi NNE 4.6 mph - N/A   Unknown
4:55 AM 69.3 °F - 68.0 °F 96% 30.16 in 10.0 mi NE 3.5 mph - N/A   Unknown
5:15 AM 68.5 °F - 67.5 °F 96% 30.16 in 10.0 mi NNE 4.6 mph - N/A   Unknown
5:35 AM 68.0 °F - 67.1 °F 97% 30.17 in 10.0 mi Calm Calm - N/A   Unknown
5:55 AM 68.2 °F - 67.3 °F 97% 30.17 in 10.0 mi NNE 3.5 mph - N/A   Unknown
6:15 AM 68.0 °F - 67.1 °F 97% 30.18 in 10.0 mi North 3.5 mph - N/A   Unknown
6:35 AM 68.2 °F - 67.5 °F 98% 30.19 in 10.0 mi Calm Calm - N/A   Unknown
6:55 AM 67.8 °F - 66.9 °F 97% 30.19 in 10.0 mi North 3.5 mph - N/A   Unknown
7:15 AM 67.5 °F - 66.6 °F 97% 30.20 in 10.0 mi Calm Calm - N/A   Unknown
7:35 AM 68.0 °F - 67.3 °F 98% 30.20 in 10.0 mi NE 3.5 mph - N/A   Unknown
7:55 AM 68.9 °F - 68.0 °F 97% 30.20 in 10.0 mi NE 3.5 mph - N/A   Unknown
8:15 AM 70.3 °F - 68.5 °F 94% 30.21 in 10.0 mi NE 4.6 mph - N/A   Unknown
8:35 AM 71.8 °F - 68.9 °F 91% 30.21 in 10.0 mi NNE 6.9 mph - N/A   Unknown
8:55 AM 73.8 °F - 68.9 °F 85% 30.21 in 10.0 mi NE 6.9 mph - N/A   Unknown
9:15 AM 75.7 °F - 68.9 °F 79% 30.22 in 10.0 mi NE 6.9 mph - N/A   Unknown
9:35 AM 77.7 °F - 68.5 °F 73% 30.22 in 10.0 mi ENE 6.9 mph - N/A   Unknown
9:55 AM 78.6 °F - 68.2 °F 70% 30.22 in 10.0 mi NE 10.4 mph - N/A   Unknown
10:15 AM 79.9 °F - 68.0 °F 67% 30.22 in 10.0 mi NE 10.4 mph - N/A   Unknown
10:35 AM 80.6 °F 83.6 °F 69.1 °F 68% 30.22 in 10.0 mi ENE 6.9 mph - N/A   Unknown
10:55 AM 82.6 °F 85.3 °F 67.3 °F 60% 30.22 in 10.0 mi ENE 8.1 mph - N/A   Unknown
11:15 AM 82.6 °F 85.3 °F 67.3 °F 60% 30.22 in 10.0 mi ENE 8.1 mph 18.4 mph N/A   Unknown
11:35 AM 83.3 °F 86.2 °F 67.5 °F 59% 30.21 in 10.0 mi ENE 11.5 mph 17.3 mph N/A   Unknown
11:55 AM 83.7 °F 85.8 °F 66.0 °F 55% 30.21 in 10.0 mi East 10.4 mph 18.4 mph N/A   Unknown
12:15 PM 83.8 °F 85.6 °F 65.3 °F 53% 30.21 in 10.0 mi NE 11.5 mph - N/A   Unknown
12:35 PM 83.8 °F 85.6 °F 64.9 °F 53% 30.20 in 10.0 mi ENE 9.2 mph 17.3 mph N/A   Unknown
12:55 PM 85.6 °F 87.9 °F 66.4 °F 52% 30.19 in 10.0 mi NE 6.9 mph - N/A   Unknown
1:15 PM 85.6 °F 87.4 °F 65.3 °F 50% 30.19 in 7.0 mi East 10.4 mph 21.9 mph N/A   Haze
1:35 PM 86.2 °F 88.2 °F 65.7 °F 50% 30.17 in 10.0 mi NE 12.7 mph 18.4 mph N/A   Unknown
1:55 PM 85.6 °F 87.6 °F 65.5 °F 51% 30.17 in 10.0 mi NE 11.5 mph 19.6 mph N/A   Unknown
2:15 PM 86.5 °F 89.3 °F 66.9 °F 52% 30.16 in 10.0 mi NE 8.1 mph - N/A   Unknown
2:35 PM 87.4 °F 89.1 °F 65.1 °F 47% 30.15 in 10.0 mi East 6.9 mph 18.4 mph N/A   Unknown
2:55 PM 86.9 °F 88.6 °F 65.1 °F 48% 30.15 in 10.0 mi ENE 6.9 mph - N/A   Unknown
3:15 PM 86.5 °F 88.1 °F 64.6 °F 48% 30.14 in 10.0 mi ENE 10.4 mph - N/A   Unknown
3:35 PM 86.0 °F 87.1 °F 63.7 °F 47% 30.13 in 10.0 mi ENE 6.9 mph - N/A   Unknown
3:55 PM 86.0 °F 86.6 °F 62.6 °F 45% 30.12 in 10.0 mi ENE 11.5 mph - N/A   Unknown
4:15 PM 87.6 °F 88.2 °F 62.8 °F 43% 30.12 in 10.0 mi East 13.8 mph 17.3 mph N/A   Unknown
4:35 PM 87.3 °F 88.0 °F 63.0 °F 44% 30.12 in 10.0 mi ENE 9.2 mph 16.1 mph N/A   Unknown
4:55 PM 87.8 °F 88.5 °F 62.6 °F 43% 30.12 in 10.0 mi East 8.1 mph 18.4 mph N/A   Unknown
5:15 PM 84.4 °F 85.2 °F 62.8 °F 48% 30.12 in 7.0 mi East 9.2 mph 19.6 mph N/A   Unknown
5:35 PM 84.4 °F 85.4 °F 63.3 °F 49% 30.12 in 10.0 mi ENE 8.1 mph - N/A   Unknown
5:55 PM 85.1 °F 86.4 °F 63.7 °F 49% 30.12 in 10.0 mi East 6.9 mph - N/A   Unknown
6:15 PM 84.7 °F 85.9 °F 63.9 °F 49% 30.12 in 10.0 mi East 10.4 mph 18.4 mph N/A   Unknown
6:35 PM 82.0 °F 83.1 °F 63.0 °F 52% 30.13 in 10.0 mi East 5.8 mph - N/A   Unknown
6:55 PM 82.2 °F 83.5 °F 63.7 °F 53% 30.13 in 10.0 mi ENE 5.8 mph - N/A   Unknown
7:15 PM 80.8 °F 82.2 °F 63.7 °F 56% 30.14 in 10.0 mi ENE 5.8 mph - N/A   Unknown
7:35 PM 79.3 °F - 64.0 °F 59% 30.14 in 10.0 mi East 6.9 mph - N/A   Unknown
7:55 PM 78.4 °F - 64.4 °F 62% 30.14 in 10.0 mi ENE 5.8 mph - N/A   Unknown
8:15 PM 78.8 °F - 64.4 °F 61% 30.15 in 10.0 mi ENE 4.6 mph - N/A   Unknown
8:35 PM 77.5 °F - 63.7 °F 62% 30.15 in 10.0 mi ENE 5.8 mph - N/A   Unknown
8:55 PM 77.4 °F - 63.7 °F 63% 30.16 in 10.0 mi ENE 8.1 mph - N/A   Unknown
9:15 PM 76.1 °F - 63.7 °F 65% 30.16 in 10.0 mi ENE 4.6 mph - N/A   Unknown
9:35 PM 75.4 °F - 63.9 °F 67% 30.17 in 10.0 mi NE 4.6 mph - N/A   Unknown
9:55 PM 74.3 °F - 64.0 °F 70% 30.17 in 10.0 mi NE 4.6 mph - N/A   Unknown
10:15 PM 73.8 °F - 64.0 °F 72% 30.17 in 10.0 mi ENE 5.8 mph - N/A   Unknown
10:35 PM 73.4 °F - 64.4 °F 73% 30.17 in 10.0 mi NE 4.6 mph - N/A   Unknown
10:55 PM 73.0 °F - 64.2 °F 74% 30.17 in 10.0 mi ENE 4.6 mph - N/A   Unknown
11:15 PM 72.9 °F - 64.4 °F 75% 30.17 in 10.0 mi NE 4.6 mph - N/A   Unknown
11:35 PM 72.1 °F - 64.6 °F 77% 30.18 in 10.0 mi NE 5.8 mph - N/A   Unknown
11:55 PM 71.6 °F - 64.9 °F 79% 30.18 in 10.0 mi Calm Calm - N/A   Unknown